| time (UTC) | temp F | wind direction | speed MPH | gust MPH | rain 1hr in | rain 24hr in | rain mn in | humidity % | barometer mb |
| 20260505153104 | 44 | 111 | 3.0 | 7.0 | 0.00 | 0.07 | 0.07 | 57 | 1001.2 |
| 20260505152542 | 44 | 0 | 2.0 | 10.0 | 0.00 | 0.07 | 0.07 | 58 | 1001.2 |
| 20260505152046 | 44 | 103 | 4.0 | 10.0 | 0.00 | 0.07 | 0.07 | 58 | 1001.2 |
| 20260505151546 | 44 | 174 | 3.0 | 10.0 | 0.00 | 0.07 | 0.07 | 58 | 1001.2 |
| 20260505151042 | 44 | 247 | 3.0 | 9.0 | 0.00 | 0.07 | 0.07 | 59 | 1001.2 |
| 20260505150544 | 43 | 115 | 4.0 | 9.0 | 0.00 | 0.07 | 0.07 | 58 | 1001.2 |
| 20260505150111 | 43 | 105 | 4.0 | 11.0 | 0.00 | 0.07 | 0.07 | 57 | 1001.2 |
| 20260505140542 | 43 | 194 | 5.0 | 11.0 | 0.00 | 0.07 | 0.07 | 61 | 1001.1 |
| 20260505124623 | 43 | 117 | 2.0 | 10.0 | 0.00 | 0.12 | 0.07 | 75 | 1000.8 |
| 20260505124043 | 42 | 184 | 2.0 | 11.0 | 0.00 | 0.12 | 0.07 | 75 | 1000.8 |
| 20260505123542 | 42 | 174 | 4.0 | 11.0 | 0.00 | 0.12 | 0.07 | 73 | 1000.8 |
| 20260505123110 | 42 | 261 | 4.0 | 9.0 | 0.00 | 0.12 | 0.07 | 75 | 1000.8 |
| 20260505122542 | 41 | 150 | 3.0 | 9.0 | 0.00 | 0.12 | 0.07 | 76 | 1000.7 |
| 20260505122043 | 41 | 212 | 3.0 | 7.0 | 0.01 | 0.12 | 0.07 | 76 | 1000.7 |
| 20260505121550 | 41 | 169 | 3.0 | 9.0 | 0.01 | 0.12 | 0.07 | 77 | 1000.7 |
| 20260505121048 | 41 | 194 | 5.0 | 11.0 | 0.02 | 0.12 | 0.07 | 78 | 1000.8 |
| 20260505120544 | 40 | 198 | 5.0 | 11.0 | 0.02 | 0.12 | 0.07 | 80 | 1000.8 |
| 20260505120057 | 40 | 228 | 4.0 | 13.0 | 0.02 | 0.12 | 0.07 | 79 | 1000.8 |
| 20260505115542 | 40 | 186 | 4.0 | 13.0 | 0.02 | 0.12 | 0.07 | 81 | 1000.9 |
| 20260505115042 | 39 | 264 | 4.0 | 9.0 | 0.02 | 0.12 | 0.07 | 81 | 1001.0 |
| 20260505114600 | 39 | 254 | 2.0 | 7.0 | 0.02 | 0.12 | 0.07 | 82 | 1000.9 |
| 20260505114042 | 39 | 132 | 1.0 | 7.0 | 0.02 | 0.12 | 0.07 | 83 | 1000.8 |
| 20260505113542 | 38 | 217 | 1.0 | 6.0 | 0.02 | 0.12 | 0.07 | 80 | 1000.7 |
| 20260505113054 | 38 | 282 | 2.0 | 6.0 | 0.02 | 0.12 | 0.07 | 78 | 1000.7 |
| 20260505112542 | 39 | 260 | 3.0 | 8.0 | 0.01 | 0.11 | 0.06 | 76 | 1000.7 |
| 20260505112042 | 39 | 259 | 2.0 | 17.0 | 0.00 | 0.11 | 0.05 | 75 | 1000.8 |
| 20260505111556 | 40 | 252 | 7.0 | 20.0 | 0.00 | 0.11 | 0.05 | 74 | 1000.9 |
| 20260505111042 | 41 | 266 | 10.0 | 20.0 | 0.00 | 0.10 | 0.04 | 72 | 1000.9 |
| 20260505110541 | 42 | 257 | 7.0 | 14.0 | 0.00 | 0.10 | 0.04 | 72 | 1000.5 |
| 20260505102042 | 40 | 252 | 4.0 | 14.0 | 0.00 | 0.11 | 0.04 | 76 | 1000.1 |
| 20260505101550 | 40 | 166 | 6.0 | 19.0 | 0.00 | 0.11 | 0.04 | 76 | 1000.1 |
| 20260505101046 | 41 | 294 | 5.0 | 19.0 | 0.00 | 0.11 | 0.04 | 74 | 1000.0 |
| 20260505100542 | 41 | 169 | 5.0 | 13.0 | 0.00 | 0.11 | 0.04 | 72 | 999.9 |
| 20260505100054 | 41 | 187 | 7.0 | 13.0 | 0.01 | 0.11 | 0.04 | 73 | 999.9 |
| 20260505095541 | 41 | 204 | 6.0 | 11.0 | 0.01 | 0.12 | 0.04 | 75 | 999.9 |
| 20260505095043 | 40 | 117 | 1.0 | 6.0 | 0.01 | 0.12 | 0.04 | 81 | 999.8 |
| 20260505094552 | 40 | 166 | 1.0 | 6.0 | 0.02 | 0.12 | 0.04 | 81 | 999.8 |
| 20260505094042 | 39 | 268 | 2.0 | 6.0 | 0.02 | 0.12 | 0.04 | 82 | 999.7 |
| 20260505093544 | 38 | 171 | 2.0 | 7.0 | 0.02 | 0.12 | 0.04 | 81 | 999.8 |
| 20260505093050 | 38 | 174 | 3.0 | 7.0 | 0.02 | 0.12 | 0.04 | 82 | 999.8 |
| 20260505092545 | 37 | 167 | 3.0 | 9.0 | 0.02 | 0.12 | 0.04 | 82 | 1000.0 |
| 20260505092042 | 37 | 200 | 5.0 | 10.0 | 0.02 | 0.11 | 0.03 | 80 | 999.9 |
| 20260505091551 | 37 | 246 | 6.0 | 13.0 | 0.02 | 0.11 | 0.03 | 80 | 1000.0 |
| 20260505091041 | 38 | 194 | 5.0 | 13.0 | 0.03 | 0.11 | 0.03 | 80 | 999.9 |
| 20260505090542 | 38 | 261 | 4.0 | 11.0 | 0.03 | 0.11 | 0.03 | 81 | 999.7 |
| 20260505090058 | 38 | 236 | 3.0 | 6.0 | 0.02 | 0.11 | 0.03 | 81 | 999.7 |
| 20260505085543 | 38 | 261 | 1.0 | 6.0 | 0.02 | 0.13 | 0.03 | 81 | 999.6 |
| 20260505085045 | 37 | 0 | 0.0 | 7.0 | 0.02 | 0.13 | 0.03 | 81 | 999.6 |
| 20260505084551 | 37 | 242 | 2.0 | 8.0 | 0.01 | 0.12 | 0.02 | 80 | 999.5 |
| 20260505084041 | 38 | 229 | 3.0 | 8.0 | 0.01 | 0.12 | 0.02 | 80 | 999.5 |
| 20260505083541 | 38 | 254 | 2.0 | 8.0 | 0.01 | 0.12 | 0.02 | 80 | 999.5 |
| 20260505083105 | 38 | 254 | 3.0 | 14.0 | 0.01 | 0.12 | 0.02 | 80 | 999.5 |
| 20260505082543 | 38 | 163 | 5.0 | 14.0 | 0.01 | 0.12 | 0.02 | 80 | 999.5 |
| 20260505082042 | 38 | 190 | 5.0 | 14.0 | 0.00 | 0.11 | 0.01 | 79 | 999.5 |
| 20260505081552 | 38 | 242 | 4.0 | 9.0 | 0.00 | 0.11 | 0.01 | 82 | 999.4 |
| 20260505081042 | 37 | 0 | 0.0 | 6.0 | 0.00 | 0.11 | 0.00 | 86 | 999.2 |
| 20260505080543 | 37 | 0 | 2.0 | 6.0 | 0.00 | 0.11 | 0.00 | 86 | 999.2 |
| 20260505080053 | 37 | 0 | 0.0 | 3.0 | 0.00 | 0.11 | 0.00 | 85 | 999.2 |
| 20260505075542 | 36 | 0 | 0.0 | 4.0 | 0.00 | 0.13 | 0.00 | 85 | 999.2 |
| 20260505075043 | 36 | 0 | 1.0 | 4.0 | 0.00 | 0.13 | 0.00 | 85 | 999.1 |
| 20260505074548 | 36 | 35 | 0.0 | 4.0 | 0.00 | 0.13 | 0.00 | 85 | 999.1 |
| 20260505074046 | 36 | 113 | 2.0 | 4.0 | 0.00 | 0.13 | 0.00 | 86 | 999.1 |
| 20260505073543 | 36 | 113 | 3.0 | 4.0 | 0.00 | 0.13 | 0.00 | 86 | 999.1 |
| 20260505073057 | 35 | 0 | 0.0 | 1.0 | 0.00 | 0.13 | 0.00 | 85 | 999.1 |
| 20260505072545 | 35 | 0 | 0.0 | 1.0 | 0.00 | 0.13 | 0.00 | 85 | 999.2 |
| 20260505072042 | 35 | 0 | 0.0 | 2.0 | 0.00 | 0.13 | 0.00 | 85 | 999.2 |
| 20260505071548 | 35 | 0 | 0.0 | 2.0 | 0.00 | 0.13 | 0.00 | 84 | 999.3 |
| 20260505071042 | 35 | 0 | 0.0 | 4.0 | 0.00 | 0.13 | 0.00 | 84 | 999.2 |
| 20260505070545 | 35 | 172 | 0.0 | 7.0 | 0.00 | 0.13 | 0.00 | 85 | 999.1 |
| 20260505070054 | 35 | 0 | 1.0 | 7.0 | 0.00 | 0.13 | 0.00 | 84 | 999.2 |
| 20260505065542 | 35 | 284 | 1.0 | 5.0 | 0.00 | 0.14 | 0.00 | 84 | 999.2 |
| 20260505065041 | 35 | 259 | 1.0 | 6.0 | 0.00 | 0.14 | 0.00 | 84 | 999.1 |
| 20260505064548 | 35 | 238 | 2.0 | 6.0 | 0.00 | 0.14 | 0.00 | 84 | 999.0 |
| 20260505064044 | 35 | 180 | 2.0 | 7.0 | 0.00 | 0.14 | 0.00 | 84 | 999.0 |
| 20260505063542 | 36 | 179 | 3.0 | 9.0 | 0.00 | 0.14 | 0.00 | 83 | 998.9 |
| 20260505063048 | 36 | 159 | 4.0 | 9.0 | 0.00 | 0.14 | 0.00 | 83 | 998.9 |
| 20260505062544 | 36 | 198 | 3.0 | 10.0 | 0.00 | 0.14 | 0.00 | 83 | 999.0 |
| 20260505062045 | 36 | 266 | 5.0 | 10.0 | 0.00 | 0.14 | 0.00 | 82 | 999.1 |
| 20260505061550 | 36 | 248 | 5.0 | 10.0 | 0.00 | 0.14 | 0.00 | 81 | 998.9 |
| 20260505061044 | 36 | 219 | 5.0 | 14.0 | 0.00 | 0.14 | 0.00 | 81 | 998.8 |
| 20260505060545 | 37 | 248 | 6.0 | 14.0 | 0.00 | 0.14 | 0.00 | 81 | 998.8 |
| 20260505060050 | 37 | 258 | 5.0 | 15.0 | 0.00 | 0.14 | 0.00 | 81 | 998.7 |
| 20260505055545 | 37 | 151 | 3.0 | 15.0 | 0.00 | 0.14 | 0.00 | 82 | 998.6 |
| 20260505055048 | 37 | 194 | 1.0 | 13.0 | 0.00 | 0.14 | 0.00 | 82 | 998.5 |
| 20260505054551 | 37 | 0 | 2.0 | 6.0 | 0.00 | 0.14 | 0.00 | 82 | 998.6 |
| 20260505054043 | 37 | 132 | 1.0 | 5.0 | 0.00 | 0.14 | 0.00 | 82 | 998.5 |
| 20260505053548 | 37 | 246 | 0.0 | 5.0 | 0.00 | 0.14 | 0.00 | 82 | 998.5 |
| 20260505053056 | 37 | 342 | 2.0 | 9.0 | 0.00 | 0.14 | 0.00 | 82 | 998.6 |
| 20260505052544 | 37 | 271 | 3.0 | 11.0 | 0.00 | 0.14 | 0.00 | 83 | 998.7 |
| 20260505052045 | 37 | 257 | 3.0 | 11.0 | 0.00 | 0.14 | 0.00 | 82 | 998.6 |
| 20260505051551 | 37 | 286 | 6.0 | 11.0 | 0.00 | 0.14 | 0.00 | 82 | 998.6 |
| 20260505051044 | 37 | 161 | 5.0 | 9.0 | 0.00 | 0.14 | 0.00 | 82 | 998.7 |
| 20260505050543 | 37 | 236 | 4.0 | 9.0 | 0.00 | 0.13 | 0.00 | 82 | 998.7 |
| 20260505050122 | 37 | 184 | 4.0 | 9.0 | 0.00 | 0.13 | 0.00 | 82 | 998.6 |
| 20260505041604 | 36 | 215 | 2.0 | 9.0 | 0.00 | 0.14 | 0.00 | 78 | 998.6 |
| 20260505041046 | 36 | 248 | 5.0 | 9.0 | 0.00 | 0.14 | 0.00 | 78 | 998.6 |
| 20260505040544 | 36 | 215 | 3.0 | 10.0 | 0.00 | 0.14 | 0.00 | 78 | 998.6 |
| 20260505040101 | 36 | 236 | 4.0 | 10.0 | 0.00 | 0.14 | 0.00 | 78 | 998.6 |
| 20260505035544 | 36 | 245 | 2.0 | 7.0 | 0.00 | 0.14 | 0.00 | 79 | 998.6 |
| 20260505035043 | 36 | 241 | 3.0 | 8.0 | 0.00 | 0.14 | 0.00 | 79 | 998.6 |
| 20260505034558 | 36 | 252 | 4.0 | 9.0 | 0.00 | 0.14 | 0.00 | 80 | 998.5 |
| 20260505034043 | 36 | 246 | 5.0 | 10.0 | 0.00 | 0.14 | 0.00 | 80 | 998.5 |
| 20260505033544 | 36 | 268 | 5.0 | 10.0 | 0.00 | 0.14 | 0.00 | 80 | 998.4 |
| 20260505033059 | 36 | 267 | 5.0 | 11.0 | 0.00 | 0.14 | 0.00 | 81 | 998.4 |
| 20260505032544 | 36 | 256 | 5.0 | 13.0 | 0.00 | 0.14 | 0.00 | 81 | 998.3 |
| 20260505032043 | 36 | 258 | 6.0 | 13.0 | 0.00 | 0.14 | 0.00 | 82 | 998.3 |
| 20260505031559 | 36 | 225 | 7.0 | 13.0 | 0.00 | 0.14 | 0.00 | 81 | 998.2 |
| 20260505031043 | 36 | 284 | 4.0 | 14.0 | 0.00 | 0.14 | 0.00 | 79 | 998.3 |
| 20260505030542 | 36 | 242 | 6.0 | 14.0 | 0.00 | 0.14 | 0.00 | 80 | 998.1 |
| 20260505030053 | 36 | 239 | 6.0 | 14.0 | 0.00 | 0.14 | 0.00 | 81 | 998.2 |
| 20260505025542 | 36 | 249 | 8.0 | 14.0 | 0.00 | 0.16 | 0.00 | 81 | 998.1 |
| 20260505025042 | 35 | 225 | 3.0 | 10.0 | 0.00 | 0.16 | 0.00 | 82 | 998.1 |
| 20260505024549 | 35 | 256 | 3.0 | 6.0 | 0.00 | 0.16 | 0.00 | 82 | 998.1 |
| 20260505024041 | 35 | 232 | 2.0 | 6.0 | 0.00 | 0.16 | 0.00 | 81 | 998.2 |
| 20260505023544 | 35 | 156 | 3.0 | 7.0 | 0.00 | 0.16 | 0.00 | 80 | 998.1 |
| 20260505023054 | 36 | 217 | 2.0 | 7.0 | 0.00 | 0.16 | 0.00 | 80 | 998.1 |
| 20260505022541 | 35 | 248 | 1.0 | 8.0 | 0.00 | 0.16 | 0.00 | 80 | 998.2 |
| 20260505022042 | 36 | 212 | 2.0 | 13.0 | 0.00 | 0.16 | 0.00 | 80 | 998.1 |
| 20260505021549 | 36 | 234 | 3.0 | 17.0 | 0.00 | 0.16 | 0.00 | 80 | 998.1 |
| 20260505021041 | 36 | 332 | 8.0 | 17.0 | 0.00 | 0.16 | 0.00 | 80 | 998.3 |
| 20260505020542 | 36 | 276 | 6.0 | 13.0 | 0.00 | 0.16 | 0.00 | 82 | 998.2 |
| 20260505020049 | 36 | 259 | 8.0 | 13.0 | 0.00 | 0.16 | 0.00 | 83 | 998.1 |
| 20260505015542 | 36 | 240 | 7.0 | 13.0 | 0.00 | 0.18 | 0.00 | 83 | 998.2 |
| 20260505015042 | 36 | 288 | 4.0 | 10.0 | 0.00 | 0.18 | 0.00 | 84 | 998.2 |
| 20260505014605 | 36 | 227 | 5.0 | 10.0 | 0.00 | 0.18 | 0.00 | 84 | 998.2 |
| 20260505014042 | 36 | 244 | 6.0 | 11.0 | 0.00 | 0.18 | 0.00 | 84 | 998.2 |
| 20260505013542 | 36 | 263 | 5.0 | 11.0 | 0.00 | 0.18 | 0.00 | 84 | 998.2 |
| 20260505013050 | 36 | 240 | 6.0 | 13.0 | 0.00 | 0.18 | 0.00 | 84 | 998.3 |
| 20260505012542 | 35 | 246 | 5.0 | 13.0 | 0.00 | 0.18 | 0.00 | 84 | 998.1 |
| 20260505012042 | 35 | 259 | 5.0 | 10.0 | 0.00 | 0.18 | 0.00 | 84 | 998.3 |
| 20260505011548 | 35 | 225 | 4.0 | 10.0 | 0.00 | 0.18 | 0.00 | 85 | 998.2 |
| 20260505011043 | 35 | 254 | 3.0 | 10.0 | 0.00 | 0.18 | 0.00 | 85 | 998.2 |
| 20260505010541 | 35 | 277 | 3.0 | 8.0 | 0.00 | 0.18 | 0.00 | 84 | 998.3 |
| 20260505010049 | 35 | 252 | 3.0 | 8.0 | 0.00 | 0.18 | 0.00 | 84 | 998.3 |
| 20260505005541 | 35 | 246 | 3.0 | 11.0 | 0.00 | 0.20 | 0.00 | 84 | 998.2 |
| 20260505005042 | 36 | 240 | 4.0 | 12.0 | 0.00 | 0.20 | 0.00 | 84 | 998.3 |
| 20260505004549 | 36 | 235 | 7.0 | 12.0 | 0.00 | 0.20 | 0.00 | 84 | 998.3 |
| 20260505004041 | 36 | 239 | 6.0 | 12.0 | 0.00 | 0.20 | 0.00 | 84 | 998.4 |
| 20260505003541 | 36 | 248 | 5.0 | 12.0 | 0.00 | 0.20 | 0.00 | 84 | 998.4 |
| 20260505003045 | 36 | 227 | 7.0 | 16.0 | 0.00 | 0.20 | 0.00 | 84 | 998.4 |
| 20260505002544 | 36 | 229 | 6.0 | 16.0 | 0.00 | 0.20 | 0.00 | 84 | 998.4 |
| 20260505002041 | 36 | 266 | 9.0 | 16.0 | 0.00 | 0.20 | 0.00 | 84 | 998.4 |
| 20260505001602 | 36 | 249 | 9.0 | 15.0 | 0.00 | 0.20 | 0.00 | 84 | 998.4 |
| 20260505001042 | 36 | 246 | 9.0 | 15.0 | 0.00 | 0.20 | 0.00 | 84 | 998.4 |
| 20260505000542 | 36 | 223 | 4.0 | 10.0 | 0.00 | 0.20 | 0.00 | 82 | 998.3 |
| 20260505000115 | 36 | 250 | 2.0 | 9.0 | 0.00 | 0.20 | 0.00 | 82 | 998.3 |
| 20260504235542 | 36 | 284 | 3.0 | 9.0 | 0.00 | 0.22 | 0.00 | 82 | 998.3 |
| 20260504235042 | 36 | 285 | 2.0 | 9.0 | 0.00 | 0.22 | 0.00 | 82 | 998.3 |
| 20260504234606 | 36 | 266 | 3.0 | 9.0 | 0.00 | 0.22 | 0.00 | 82 | 998.3 |
| 20260504234041 | 36 | 262 | 4.0 | 13.0 | 0.00 | 0.22 | 0.00 | 83 | 998.3 |
| 20260504233541 | 36 | 197 | 6.0 | 13.0 | 0.00 | 0.22 | 0.00 | 83 | 998.3 |
| 20260504233059 | 36 | 252 | 4.0 | 12.0 | 0.00 | 0.22 | 0.00 | 83 | 998.3 |
| 20260504232542 | 35 | 234 | 7.0 | 12.0 | 0.00 | 0.22 | 0.00 | 83 | 998.3 |
| 20260504232041 | 35 | 258 | 7.0 | 11.0 | 0.00 | 0.22 | 0.00 | 84 | 998.4 |
| 20260504231546 | 35 | 258 | 4.0 | 9.0 | 0.00 | 0.22 | 0.00 | 84 | 998.4 |
| 20260504231041 | 35 | 261 | 4.0 | 9.0 | 0.00 | 0.22 | 0.00 | 84 | 998.4 |
| 20260504230541 | 35 | 238 | 3.0 | 8.0 | 0.00 | 0.22 | 0.00 | 84 | 998.5 |
| 20260504230047 | 35 | 263 | 3.0 | 9.0 | 0.00 | 0.22 | 0.00 | 84 | 998.5 |
| 20260504225542 | 35 | 232 | 3.0 | 9.0 | 0.00 | 0.22 | 0.00 | 84 | 998.6 |
| 20260504225045 | 35 | 236 | 4.0 | 10.0 | 0.00 | 0.22 | 0.00 | 84 | 998.6 |
| 20260504224603 | 35 | 259 | 4.0 | 10.0 | 0.00 | 0.22 | 0.00 | 84 | 998.6 |
| 20260504224042 | 35 | 232 | 3.0 | 7.0 | 0.00 | 0.22 | 0.00 | 84 | 998.5 |
| 20260504223546 | 35 | 240 | 2.0 | 9.0 | 0.00 | 0.22 | 0.00 | 83 | 998.6 |
| 20260504223048 | 35 | 258 | 3.0 | 9.0 | 0.00 | 0.22 | 0.00 | 83 | 998.6 |
| 20260504222542 | 34 | 259 | 4.0 | 8.0 | 0.00 | 0.22 | 0.00 | 83 | 998.6 |
| 20260504222043 | 35 | 250 | 3.0 | 7.0 | 0.00 | 0.22 | 0.00 | 82 | 998.7 |
| 20260504221555 | 35 | 252 | 3.0 | 8.0 | 0.00 | 0.22 | 0.00 | 82 | 998.6 |
| 20260504221043 | 35 | 229 | 3.0 | 10.0 | 0.00 | 0.22 | 0.00 | 82 | 998.5 |
| 20260504220545 | 35 | 255 | 6.0 | 11.0 | 0.00 | 0.22 | 0.00 | 81 | 998.6 |
| 20260504220050 | 35 | 248 | 6.0 | 11.0 | 0.00 | 0.22 | 0.00 | 81 | 998.6 |
| 20260504215543 | 35 | 243 | 8.0 | 13.0 | 0.00 | 0.22 | 0.22 | 81 | 998.6 |
| 20260504215043 | 36 | 235 | 6.0 | 13.0 | 0.00 | 0.22 | 0.22 | 82 | 998.6 |
| 20260504214548 | 36 | 241 | 7.0 | 12.0 | 0.00 | 0.22 | 0.22 | 83 | 998.5 |
| 20260504214043 | 36 | 259 | 3.0 | 9.0 | 0.00 | 0.22 | 0.22 | 83 | 998.5 |
| 20260504213543 | 36 | 166 | 3.0 | 9.0 | 0.00 | 0.22 | 0.22 | 83 | 998.5 |
| 20260504213112 | 36 | 250 | 5.0 | 11.0 | 0.00 | 0.22 | 0.22 | 82 | 998.6 |
| 20260504212543 | 36 | 240 | 6.0 | 11.0 | 0.00 | 0.22 | 0.22 | 81 | 998.5 |
| 20260504212047 | 36 | 238 | 6.0 | 11.0 | 0.00 | 0.22 | 0.22 | 80 | 998.5 |
| 20260504211549 | 36 | 255 | 5.0 | 10.0 | 0.00 | 0.22 | 0.22 | 80 | 998.5 |
| 20260504211044 | 36 | 202 | 5.0 | 10.0 | 0.00 | 0.22 | 0.22 | 80 | 998.4 |
| 20260504210543 | 36 | 250 | 3.0 | 10.0 | 0.00 | 0.22 | 0.22 | 80 | 998.4 |
| 20260504210053 | 36 | 234 | 5.0 | 10.0 | 0.00 | 0.22 | 0.22 | 80 | 998.4 |
| 20260504205544 | 36 | 248 | 5.0 | 10.0 | 0.00 | 0.22 | 0.22 | 81 | 998.5 |
| 20260504205045 | 36 | 234 | 5.0 | 14.0 | 0.00 | 0.22 | 0.22 | 81 | 998.4 |
| 20260504204557 | 36 | 238 | 5.0 | 14.0 | 0.00 | 0.22 | 0.22 | 81 | 998.5 |
| 20260504204043 | 37 | 241 | 7.0 | 14.0 | 0.00 | 0.22 | 0.22 | 80 | 998.5 |
| 20260504203546 | 37 | 265 | 8.0 | 13.0 | 0.00 | 0.22 | 0.22 | 80 | 998.5 |
| 20260504203112 | 37 | 265 | 7.0 | 13.0 | 0.00 | 0.22 | 0.22 | 79 | 998.6 |
| 20260504202543 | 37 | 298 | 1.0 | 7.0 | 0.00 | 0.22 | 0.22 | 77 | 998.5 |
| 20260504202043 | 37 | 246 | 2.0 | 11.0 | 0.00 | 0.22 | 0.22 | 77 | 998.5 |
| 20260504201554 | 37 | 268 | 2.0 | 11.0 | 0.00 | 0.22 | 0.22 | 77 | 998.5 |
| 20260504201043 | 37 | 290 | 3.0 | 11.0 | 0.00 | 0.22 | 0.22 | 77 | 998.5 |
| 20260504200543 | 37 | 238 | 4.0 | 8.0 | 0.00 | 0.22 | 0.22 | 77 | 998.5 |
| 20260504200053 | 37 | 237 | 3.0 | 8.0 | 0.00 | 0.22 | 0.22 | 79 | 998.4 |
| 20260504195542 | 37 | 208 | 1.0 | 7.0 | 0.00 | 0.22 | 0.22 | 78 | 998.4 |
| 20260504195045 | 37 | 351 | 2.0 | 11.0 | 0.00 | 0.22 | 0.22 | 78 | 998.4 |
| 20260504194601 | 37 | 207 | 5.0 | 11.0 | 0.00 | 0.22 | 0.22 | 78 | 998.3 |
| 20260504194044 | 37 | 321 | 2.0 | 10.0 | 0.00 | 0.22 | 0.22 | 78 | 998.4 |
| 20260504193547 | 37 | 195 | 3.0 | 10.0 | 0.00 | 0.22 | 0.22 | 78 | 998.3 |
| 20260504193100 | 37 | 298 | 6.0 | 10.0 | 0.00 | 0.22 | 0.22 | 79 | 998.3 |
| 20260504192542 | 37 | 165 | 3.0 | 6.0 | 0.00 | 0.22 | 0.22 | 80 | 998.3 |
| 20260504192043 | 37 | 0 | 2.0 | 5.0 | 0.00 | 0.22 | 0.22 | 80 | 998.3 |
| 20260504191547 | 37 | 313 | 2.0 | 5.0 | 0.00 | 0.22 | 0.22 | 80 | 998.3 |
| 20260504191041 | 37 | 329 | 2.0 | 4.0 | 0.00 | 0.22 | 0.22 | 79 | 998.3 |
| 20260504190543 | 37 | 350 | 2.0 | 4.0 | 0.00 | 0.22 | 0.22 | 79 | 998.2 |
| 20260504190058 | 37 | 331 | 2.0 | 4.0 | 0.00 | 0.22 | 0.22 | 79 | 998.2 |
| 20260504185541 | 37 | 265 | 1.0 | 5.0 | 0.00 | 0.22 | 0.22 | 78 | 998.3 |
| 20260504185041 | 37 | 250 | 1.0 | 6.0 | 0.00 | 0.22 | 0.22 | 78 | 998.2 |
| 20260504184543 | 37 | 255 | 2.0 | 6.0 | 0.00 | 0.22 | 0.22 | 78 | 998.3 |
| 20260504184041 | 37 | 260 | 2.0 | 4.0 | 0.00 | 0.22 | 0.22 | 78 | 998.3 |
| 20260504183547 | 38 | 248 | 1.0 | 5.0 | 0.00 | 0.22 | 0.22 | 78 | 998.3 |
| 20260504183049 | 38 | 281 | 1.0 | 5.0 | 0.00 | 0.22 | 0.22 | 78 | 998.1 |
| 20260504182544 | 38 | 331 | 2.0 | 8.0 | 0.00 | 0.22 | 0.22 | 78 | 998.2 |
| 20260504182041 | 38 | 0 | 2.0 | 11.0 | 0.00 | 0.22 | 0.22 | 77 | 998.1 |
| 20260504181546 | 38 | 261 | 4.0 | 15.0 | 0.00 | 0.22 | 0.22 | 77 | 998.2 |
| 20260504181041 | 38 | 251 | 7.0 | 15.0 | 0.00 | 0.22 | 0.22 | 76 | 998.3 |
| 20260504180544 | 39 | 241 | 5.0 | 10.0 | 0.00 | 0.22 | 0.22 | 76 | 998.1 |
| 20260504180049 | 39 | 5 | 3.0 | 10.0 | 0.00 | 0.22 | 0.22 | 77 | 998.0 |
| 20260504175541 | 40 | 249 | 5.0 | 14.0 | 0.00 | 0.22 | 0.22 | 77 | 997.9 |
| 20260504175043 | 40 | 267 | 3.0 | 16.0 | 0.00 | 0.22 | 0.22 | 78 | 998.0 |
| 20260504174551 | 40 | 298 | 7.0 | 16.0 | 0.00 | 0.22 | 0.22 | 78 | 997.9 |
| 20260504174041 | 40 | 308 | 7.0 | 15.0 | 0.00 | 0.22 | 0.22 | 77 | 997.8 |
| 20260504173542 | 40 | 245 | 7.0 | 15.0 | 0.00 | 0.22 | 0.22 | 76 | 997.7 |
| 20260504173054 | 40 | 260 | 3.0 | 12.0 | 0.00 | 0.22 | 0.22 | 75 | 997.6 |
| 20260504172540 | 40 | 229 | 6.0 | 12.0 | 0.00 | 0.22 | 0.22 | 73 | 997.7 |
| 20260504172044 | 40 | 246 | 7.0 | 13.0 | 0.00 | 0.22 | 0.22 | 72 | 997.6 |
| 20260504171542 | 41 | 248 | 5.0 | 13.0 | 0.00 | 0.22 | 0.22 | 72 | 997.6 |
| 20260504171044 | 41 | 237 | 3.0 | 11.0 | 0.00 | 0.22 | 0.22 | 71 | 997.6 |
| 20260504170542 | 41 | 279 | 5.0 | 13.0 | 0.00 | 0.22 | 0.22 | 71 | 997.5 |